Temperature
14 14 14 14 13 13 13 13 13 13 13 13 13 13 13 13 13 13 13 13 13 13 13 13 13 13 13 13 13 13 13 13 13 13 13 13 13 13 13 13 13 12 12
13 13 13 13 13 13 13 13 13 13 13 13 13 13 13 13 13 13 13 13 13 13 13 13 13 13 13 13 13 13 13 13 13 13 13 13 13 13 13 12 12 12 12
13 13 13 13 13 13 12 12 12 12 12 12 12 12 12 12 12 12 12 12 12 13 13 12 13 13 12 12 12 12 12 12 12 12 12 12 12 12 12 12 12 12 12
12 12 12 12 12 12 12 12 12 12 12 12 12 12 12 12 12 12 12 12 12 12 12 12 12 12 12 12 12 12 12 12 12 12 12 12 12 12 12 12 12 12 12
12 12 12 12 12 12 12 12 11 11 12 12 12 12 12 12 12 12 12 12 12 12 12 12 12 12 12 12 12 12 12 12 12 12 12 12 12 12 12 11 11 11 11
11 11 11 11 11 11 11 11 11 11 11 11 11 11 11 11 11 11 11 11 11 11 11 11 11 11 11 11 11 11 11 11 11 11 11 11 11 11 11 11 11 11 11
11 11 11 11 11 11 11 10 10 10 10 10 11 11 11 11 11 11 11 11 11 11 11 11 11 11 11 11 11 11 11 11 11 11 11 11 11 11 11 11 10 10 10
10 10 10 10 10 10 10 10 10 10 10 10 10 9 10 10 10 10 10 10 10 10 10 10 10 10 10 10 10 10 11 10 10 10 10 10 10 10 10 10 10 10 10
10 10 10 10 10 10 10 10 9 9 9 9 9 8 8 9 9 10 10 10 10 10 10 10 10 10 10 10 10 10 10 10 10 10 10 10 10 10 10 10 10 10 10
10 10 10 10 10 9 9 9 9 9 9 9 8 8 8 8 8 8 9 9 9 9 9 9 9 9 9 9 9 9 9 9 9 9 9 9 9 9 9 9 9 9 9
9 9 9 9 9 9 9 9 9 9 8 8 8 8 8 8 7 7 7 8 9 9 8 8 8 8 8 9 9 9 9 9 9 9 9 9 9 9 9 9 9 9 9
9 9 9 9 9 9 9 9 8 8 8 8 8 8 7 7 7 7 7 7 8 8 8 8 8 8 8 8 8 8 8 8 8 8 8 8 8 8 8 8 8 8 8
8 8 8 8 8 8 8 8 8 8 8 7 7 7 7 7 7 7 6 6 7 7 7 7 7 7 7 7 7 7 7 7 8 8 8 8 7 8 8 8 8 8 8
8 8 7 7 7 7 7 7 7 7 7 7 7 7 7 7 6 6 6 6 6 6 6 6 7 7 7 6 7 7 7 7 7 7 7 7 7 7 7 7 7 7 7
7 7 7 7 7 7 7 7 7 7 7 7 7 7 6 6 6 6 6 5 5 5 5 6 6 6 6 6 6 6 6 6 6 6 6 7 7 6 6 6 6 6 6
7 7 7 7 7 7 7 6 6 6 6 6 6 6 6 6 6 6 6 5 5 5 5 5 5 5 5 5 5 5 5 5 6 6 6 6 6 6 5 5 5 5 6
6 6 6 6 6 6 6 6 6 6 6 6 6 6 6 6 5 5 5 5 5 4 4 5 5 5 5 5 5 5 5 5 5 5 5 5 5 5 5 5 5 5 5
6 6 6 6 6 6 6 6 6 6 5 5 5 5 5 5 5 5 5 5 4 4 4 4 4 4 4 4 4 4 4 4 4 4 4 4 4 4 4 4 4 4 4
5 6 5 5 5 5 5 5 5 5 5 5 5 5 5 4 4 4 4 4 4 4 4 3 3 3 4 4 3 3 3 3 3 3 3 3 3 3 3 3 3 3 3
5 5 5 5 5 5 5 5 5 5 5 4 4 4 4 4 4 4 4 3 3 3 3 3 3 3 3 3 3 3 3 3 3 3 3 2 2 2 2 2 2 3 3
5 5 5 5 5 5 4 4 4 4 4 4 4 3 3 3 3 3 3 3 3 3 2 2 2 2 2 2 2 2 2 2 2 2 2 2 2 2 2 2 2 2 2
5 4 4 4 4 4 4 4 4 4 3 3 3 3 3 3 3 3 2 2 2 2 2 2 2 2 2 1 1 1 1 1 1 1 1 1 1 1 1 1 1 1 1
4 4 4 4 4 4 4 4 3 3 3 3 3 2 2 2 2 2 2 2 2 2 2 1 1 1 1 1 1 0 0 0 0 0 0 1 1 0 1 1 1 1 0
4 4 4 4 4 4 3 3 3 3 3 2 2 2 2 2 2 2 2 2 2 2 1 1 1 1 0 0 -0 -0 -0 -0 -0 -0 -1 -1 -0 -0 0 0 0 -0 -0
4 3 3 3 3 3 3 3 2 2 2 2 2 2 2 2 2 1 1 1 1 1 1 1 0 0 -0 -0 -1 -1 -1 -1 -1 -1 -1 -2 -1 -1 -0 -0 -0 -1 -1
3 3 3 3 3 3 2 2 2 2 2 2 2 2 1 1 1 1 1 1 1 1 0 0 -0 -0 -0 -1 -1 -1 -1 -2 -2 -2 -2 -2 -2 -3 -3 -1 -1 -1 -1
Wind_Speed
1 2 2 2 3 3 3 3 3 4 4 5 6 6 6 6 6 7 7 10 11 12 12 12 12 12 11 11 12 12 13 13 12 12 12 11 11 11 11 11 10 10 10
2 1 2 2 3 3 3 3 3 3 4 4 4 5 6 6 6 6 7 8 9 10 12 12 13 13 12 12 12 12 12 13 14 14 14 13 13 13 12 12 11 11 11
3 2 2 2 3 4 4 3 3 3 3 3 4 5 4 4 4 5 7 7 7 9 10 11 12 12 13 13 12 12 12 13 13 14 15 15 15 14 14 13 13 13 12
4 3 2 2 4 4 3 2 2 2 3 3 4 4 4 4 4 5 5 5 6 6 8 10 10 11 11 12 12 12 12 12 12 13 14 15 16 15 15 15 15 14 14
6 3 2 3 3 2 2 2 2 2 3 4 4 4 4 4 4 4 3 4 4 5 6 7 9 10 10 10 11 12 13 13 13 13 14 14 15 16 17 17 16 16 15
6 4 3 3 3 2 2 2 2 2 2 3 4 4 4 4 3 3 3 3 3 4 4 4 5 6 8 9 10 11 12 13 13 13 13 13 14 15 17 17 17 16 16
5 4 3 3 3 2 2 3 2 3 2 2 2 3 4 3 3 3 2 2 2 3 3 3 3 4 5 7 8 9 11 12 12 12 13 13 14 15 15 16 17 17 17
5 4 4 3 3 3 3 2 2 2 2 2 1 2 3 4 3 3 2 2 2 2 2 2 2 3 4 4 5 7 8 10 12 12 12 12 13 14 15 15 16 16 16
4 4 4 3 3 3 3 3 2 2 2 2 1 1 1 3 3 3 2 2 2 2 2 1 2 2 3 3 4 6 7 8 11 12 12 12 13 13 14 14 14 15 15
3 3 4 3 3 2 3 4 2 2 2 2 2 2 2 2 2 4 3 2 3 2 2 2 1 2 2 2 3 6 7 8 9 10 11 12 13 12 13 13 13 14 14
3 4 3 3 3 2 3 3 3 3 2 2 2 2 2 2 2 3 5 4 3 2 2 2 1 1 2 2 3 6 8 9 10 11 11 12 12 12 12 12 12 13 12
2 3 3 3 3 3 3 3 3 3 3 3 2 2 2 2 2 2 4 4 4 3 2 1 1 1 2 3 4 7 8 9 10 11 12 12 12 12 12 12 12 12 12
2 3 3 3 3 3 3 3 3 3 3 3 3 3 3 3 2 2 3 4 4 3 2 1 1 1 2 3 5 7 8 9 10 10 11 11 11 11 12 12 11 12 12
3 3 3 3 4 4 3 2 2 3 2 2 3 3 2 2 2 2 2 3 4 4 3 3 1 1 2 3 5 7 7 9 9 10 10 11 11 11 11 11 11 11 12
3 3 3 3 4 3 3 2 2 3 2 2 2 2 2 2 2 2 2 3 3 4 5 3 2 2 3 4 6 6 7 8 9 10 10 10 10 10 10 10 10 10 11
3 3 3 4 4 4 3 2 2 3 2 2 2 2 2 2 2 2 2 2 3 4 4 3 2 3 3 4 7 7 7 8 9 10 10 9 9 9 9 9 10 10 11
3 4 4 4 4 4 3 2 3 3 2 3 2 2 3 2 2 2 2 2 2 3 5 4 2 3 3 4 5 6 6 6 8 9 9 9 9 9 9 9 10 10 10
4 4 4 4 4 4 3 3 3 3 3 3 3 3 3 2 2 2 2 2 2 3 4 5 3 3 3 3 4 4 5 6 7 8 9 9 9 9 10 10 10 10 10
5 4 4 4 5 4 4 4 4 4 3 4 4 3 3 3 3 3 2 2 2 2 2 3 4 2 2 3 3 4 4 4 6 7 8 8 9 9 10 10 10 10 10
5 5 5 5 5 5 4 4 4 4 4 4 4 4 4 4 4 3 3 3 2 2 2 3 3 3 2 3 2 3 4 4 5 5 7 8 9 10 10 10 10 10 10
6 6 5 5 5 4 4 4 4 4 4 4 4 4 4 4 5 4 3 3 3 2 2 3 3 3 3 3 3 3 4 5 4 3 4 4 5 6 7 10 10 10 10
6 5 6 6 6 5 7 8 5 4 4 5 5 4 4 4 5 5 5 4 4 4 4 3 3 4 4 3 3 3 4 4 4 2 3 5 3 4 5 7 10 11 11
6 6 6 6 7 8 10 9 8 5 5 5 5 5 4 4 4 3 3 4 4 4 4 4 4 4 4 4 3 4 4 4 5 4 4 5 4 5 5 9 12 11 11
6 6 6 6 6 8 10 10 8 5 4 5 5 5 5 5 4 3 3 2 2 2 3 2 3 3 3 3 3 3 4 4 5 4 2 4 4 4 6 8 11 10 11
6 6 5 6 7 8 9 10 8 4 4 5 5 5 5 5 6 5 3 3 3 3 2 2 2 2 3 3 3 1 2 3 4 3 1 2 3 4 5 5 7 9 11
6 6 6 6 7 7 9 10 9 4 5 5 4 4 6 6 6 6 4 4 4 3 1 1 1 2 2 3 3 1 1 2 3 3 1 2 2 3 4 3 3 6 8
Wind_Direction
9 6 345 329 309 301 290 285 283 277 274 275 273 271 271 263 260 255 255 251 248 246 248 248 247 245 246 247 247 246 245 243 242 243 243 242 244 247 250 252 254 254 256
19 3 352 342 328 313 298 288 283 278 274 272 273 274 266 262 257 252 255 254 252 251 252 254 253 251 250 250 251 249 248 249 249 247 247 246 245 247 249 251 252 254 257
17 18 359 337 327 323 319 314 307 304 299 297 288 281 275 268 268 259 258 256 255 254 255 261 261 257 255 254 253 254 251 251 253 253 252 250 248 247 248 250 251 252 255
23 28 12 332 330 335 338 323 318 315 310 304 292 288 282 273 267 262 259 255 250 252 254 258 262 260 259 258 260 260 258 255 255 257 259 257 251 249 249 250 251 251 253
12 15 8 343 340 347 341 322 329 310 301 300 290 285 282 273 267 268 258 257 255 254 252 254 256 259 261 262 266 268 267 265 262 261 261 263 259 254 251 251 250 250 251
5 6 359 348 352 339 326 317 307 306 290 289 294 295 287 279 271 264 258 260 265 263 256 249 253 259 261 264 269 273 275 274 273 270 267 266 264 261 258 254 253 252 253
4 7 360 345 345 328 313 313 306 301 303 306 309 310 300 288 286 270 261 262 281 274 262 253 256 264 271 269 271 279 282 282 280 278 276 273 269 266 263 260 258 256 256
359 357 359 337 337 329 324 320 311 296 289 307 296 309 314 316 303 288 278 266 281 296 285 269 263 268 273 273 285 290 290 289 285 281 280 279 276 271 269 268 267 262 259
357 354 349 343 334 329 315 304 292 270 278 286 267 227 262 269 305 298 287 288 296 295 288 283 274 277 280 284 291 300 298 295 289 285 284 283 280 277 275 274 273 270 268
348 351 347 343 334 327 318 310 305 278 256 270 279 260 244 233 263 296 303 304 306 294 288 300 313 317 310 309 313 321 317 307 301 299 293 290 288 284 282 282 283 281 275
344 349 346 344 334 322 310 310 310 294 264 251 254 261 260 258 233 246 284 302 303 288 298 295 313 326 318 317 317 326 321 313 308 307 307 304 296 294 292 291 291 289 290
326 337 340 335 322 314 303 301 298 295 283 269 258 243 235 239 240 239 262 285 290 287 290 283 293 305 309 320 319 326 318 313 311 310 309 312 310 306 304 302 299 297 294
300 309 322 321 314 303 302 302 298 295 290 274 261 252 248 246 240 237 255 275 283 289 290 278 269 297 313 320 320 324 320 318 315 313 311 315 319 316 308 302 300 300 300
269 283 298 301 299 300 307 305 294 291 291 277 275 259 251 257 246 235 237 256 281 282 273 263 286 291 309 317 321 325 321 323 322 319 320 322 318 316 316 311 301 298 298
269 275 285 292 294 298 298 298 291 293 293 280 273 266 258 264 255 245 237 233 243 268 275 260 274 298 313 319 324 324 320 320 325 324 322 322 325 325 323 319 318 312 307
263 268 277 281 287 291 293 288 287 288 294 289 278 277 274 270 270 260 245 245 241 248 269 271 270 289 312 328 327 327 322 326 326 324 323 322 322 321 319 320 320 320 314
255 261 266 273 277 279 279 280 281 289 289 296 298 285 278 271 266 267 260 250 245 235 257 278 277 290 293 308 323 328 328 328 323 324 324 322 320 320 319 318 318 319 320
249 252 261 267 270 272 268 264 271 277 270 275 283 284 282 285 275 267 256 255 256 249 247 270 283 285 278 293 305 312 327 328 319 319 324 323 321 320 321 318 317 317 316
252 255 256 259 261 263 262 260 258 264 262 260 260 262 268 270 272 270 260 257 261 270 256 260 279 288 295 306 312 313 311 312 318 320 324 324 323 321 321 320 317 314 313
246 250 251 251 254 256 255 256 257 263 264 263 261 258 260 258 261 266 264 254 252 261 266 267 275 284 294 306 314 312 314 320 314 320 325 321 318 320 321 319 315 314 313
244 245 247 251 253 253 251 249 251 257 259 264 265 263 259 259 262 259 260 252 242 250 257 264 272 282 290 307 303 300 303 312 303 306 314 308 310 312 318 315 312 312 313
246 242 242 243 248 255 257 252 247 249 254 256 262 266 263 260 266 269 270 263 246 241 242 248 258 265 275 276 282 293 303 315 306 311 316 305 302 301 307 309 309 314 315
243 243 242 239 246 252 254 254 249 244 245 248 249 255 265 262 262 259 269 278 280 271 253 240 247 254 259 263 272 285 286 285 279 292 308 295 303 298 303 309 310 314 316
242 242 244 241 246 254 254 253 250 243 246 251 248 244 248 256 252 241 238 256 273 282 274 261 237 248 254 257 250 267 275 282 279 281 284 282 299 296 304 307 308 312 315
246 243 243 238 243 255 253 249 245 233 241 250 248 244 243 248 250 243 222 231 261 280 285 267 257 271 296 310 310 302 305 303 296 294 303 283 294 304 299 292 301 312 316
246 247 247 241 240 248 251 248 242 227 239 251 252 249 245 247 249 241 221 215 240 261 274 308 335 336 343 336 336 317 260 271 286 289 305 317 299 323 312 287 289 304 310
Height
1530 1530 1530 1530 1529 1529 1529 1528 1528 1528 1528 1527 1527 1527 1527 1527 1527 1527 1526 1527 1527 1527 1527 1527 1526 1526 1526 1525 1525 1525 1525 1524 1524 1524 1524 1524 1524 1523 1523 1523 1523 1522 1522
1528 1527 1527 1527 1527 1526 1526 1526 1525 1525 1524 1524 1524 1523 1523 1523 1523 1523 1523 1523 1523 1523 1523 1523 1523 1522 1522 1522 1521 1521 1521 1520 1520 1520 1520 1520 1520 1520 1520 1519 1519 1519 1519
1526 1525 1525 1524 1524 1524 1523 1523 1522 1522 1521 1521 1520 1520 1520 1519 1519 1519 1519 1519 1519 1519 1519 1518 1518 1518 1518 1518 1517 1517 1517 1516 1516 1516 1516 1516 1516 1516 1516 1516 1515 1515 1515
1524 1523 1522 1522 1521 1521 1520 1520 1519 1519 1518 1517 1517 1516 1516 1515 1515 1515 1515 1515 1514 1514 1514 1514 1514 1514 1514 1513 1513 1513 1512 1512 1512 1511 1511 1511 1511 1511 1511 1511 1511 1511 1511
1521 1521 1520 1519 1519 1518 1517 1517 1516 1515 1515 1514 1513 1512 1512 1511 1511 1511 1510 1510 1510 1510 1509 1509 1509 1509 1509 1508 1508 1508 1508 1507 1507 1507 1507 1506 1506 1506 1506 1506 1506 1506 1506
1519 1518 1518 1517 1516 1515 1514 1513 1513 1512 1511 1511 1510 1509 1508 1507 1507 1507 1506 1506 1506 1506 1505 1505 1505 1504 1504 1504 1503 1503 1503 1502 1502 1502 1502 1501 1501 1501 1501 1501 1501 1501 1500
1517 1516 1515 1514 1513 1512 1511 1511 1510 1509 1508 1508 1506 1505 1504 1503 1503 1503 1502 1502 1502 1502 1501 1501 1500 1500 1499 1499 1498 1498 1498 1497 1497 1497 1496 1496 1496 1495 1495 1495 1495 1495 1495
1515 1513 1512 1512 1511 1510 1509 1508 1507 1506 1505 1505 1504 1502 1500 1500 1499 1499 1499 1498 1498 1497 1497 1497 1496 1496 1495 1494 1494 1493 1493 1492 1492 1492 1491 1491 1490 1490 1489 1489 1489 1489 1489
1513 1511 1510 1510 1509 1507 1506 1505 1504 1503 1502 1502 1501 1501 1500 1497 1496 1495 1495 1495 1494 1494 1493 1493 1492 1491 1491 1490 1489 1489 1488 1488 1487 1486 1486 1485 1485 1484 1484 1483 1483 1482 1482
1510 1509 1508 1507 1506 1505 1503 1502 1501 1500 1499 1498 1498 1498 1498 1497 1496 1492 1491 1491 1490 1490 1489 1489 1488 1487 1486 1486 1485 1484 1483 1483 1482 1481 1480 1479 1479 1478 1478 1477 1477 1476 1476
1508 1506 1505 1504 1503 1502 1501 1499 1498 1497 1496 1495 1495 1494 1494 1493 1493 1492 1488 1486 1486 1486 1485 1484 1484 1483 1482 1481 1480 1480 1479 1478 1477 1476 1475 1474 1473 1472 1471 1471 1471 1470 1469
1505 1504 1503 1501 1500 1499 1497 1496 1495 1494 1493 1492 1491 1491 1490 1489 1488 1488 1486 1483 1482 1481 1481 1480 1480 1479 1478 1477 1476 1475 1474 1473 1472 1470 1469 1468 1467 1466 1465 1464 1464 1464 1463
1502 1501 1499 1498 1497 1495 1494 1493 1491 1490 1489 1488 1488 1487 1486 1486 1485 1484 1483 1480 1478 1477 1476 1476 1475 1474 1474 1473 1472 1470 1469 1468 1466 1465 1464 1463 1462 1461 1460 1459 1458 1457 1457
1499 1498 1496 1495 1493 1492 1491 1489 1488 1486 1485 1484 1484 1483 1482 1482 1481 1480 1479 1478 1475 1473 1472 1471 1471 1470 1469 1468 1467 1466 1464 1463 1461 1460 1459 1458 1456 1455 1454 1453 1452 1451 1450
1496 1495 1493 1492 1490 1489 1487 1486 1484 1483 1482 1481 1480 1479 1478 1478 1477 1476 1476 1475 1474 1470 1468 1467 1467 1465 1465 1463 1462 1461 1460 1458 1457 1455 1454 1452 1451 1450 1449 1447 1446 1445 1444
1492 1491 1490 1488 1487 1485 1484 1482 1481 1480 1478 1477 1476 1475 1474 1474 1473 1472 1472 1471 1470 1468 1465 1463 1463 1462 1460 1459 1458 1456 1455 1454 1452 1451 1449 1448 1446 1445 1444 1442 1441 1439 1438
1489 1487 1486 1485 1483 1482 1480 1479 1477 1476 1475 1474 1473 1472 1470 1470 1469 1468 1467 1466 1465 1464 1461 1459 1459 1458 1456 1455 1453 1452 1450 1449 1447 1446 1445 1443 1441 1440 1439 1437 1435 1434 1433
1485 1484 1482 1481 1479 1478 1477 1475 1474 1473 1471 1470 1469 1468 1466 1466 1465 1464 1463 1462 1461 1460 1458 1455 1454 1453 1452 1451 1449 1447 1445 1444 1442 1441 1440 1438 1437 1435 1434 1432 1430 1429 1427
1481 1480 1478 1477 1476 1474 1473 1472 1470 1469 1467 1466 1465 1463 1462 1461 1460 1460 1458 1457 1456 1455 1454 1452 1450 1449 1448 1447 1445 1443 1441 1439 1438 1436 1435 1433 1432 1430 1428 1427 1425 1424 1422
1477 1475 1474 1473 1471 1470 1469 1468 1466 1465 1463 1462 1461 1460 1459 1457 1456 1455 1454 1453 1452 1451 1449 1448 1446 1445 1444 1442 1441 1439 1437 1435 1433 1432 1430 1429 1427 1425 1423 1422 1420 1418 1417
1472 1471 1470 1468 1467 1466 1465 1463 1462 1460 1459 1457 1456 1455 1454 1453 1452 1451 1450 1449 1448 1446 1445 1443 1442 1440 1439 1438 1436 1434 1432 1430 1428 1427 1425 1424 1422 1420 1418 1416 1414 1413 1411
1467 1466 1465 1463 1462 1461 1460 1459 1458 1456 1454 1453 1452 1451 1450 1449 1448 1447 1445 1444 1444 1442 1441 1439 1438 1436 1435 1434 1432 1430 1428 1426 1424 1423 1421 1419 1417 1415 1413 1411 1409 1408 1406
1461 1460 1459 1458 1457 1456 1455 1454 1453 1451 1450 1449 1448 1446 1445 1444 1443 1442 1441 1440 1439 1438 1437 1436 1434 1432 1431 1429 1428 1426 1424 1422 1420 1418 1416 1413 1412 1410 1408 1406 1405 1403 1401
1455 1454 1453 1453 1451 1451 1450 1449 1448 1446 1445 1444 1443 1442 1441 1440 1439 1438 1437 1435 1434 1433 1432 1431 1430 1428 1427 1425 1424 1422 1420 1418 1416 1414 1412 1409 1407 1405 1403 1402 1400 1398 1397
1450 1449 1448 1447 1446 1445 1444 1443 1442 1441 1440 1439 1438 1437 1436 1435 1435 1434 1432 1431 1430 1429 1428 1427 1425 1424 1422 1421 1420 1418 1416 1414 1411 1410 1408 1405 1402 1399 1398 1396 1396 1394 1392
1444 1443 1442 1441 1440 1439 1439 1438 1437 1435 1434 1434 1433 1432 1432 1431 1430 1429 1428 1427 1426 1425 1424 1422 1421 1420 1419 1417 1416 1414 1412 1410 1408 1406 1404 1402 1399 1396 1392 1391 1391 1390 1387